Weather History for Fairhope, AL

Change the Weather History Date:

Saturday, January 19, 2013

  Actual Average (KBFM) Record (KBFM)
Temperature  
Mean Temperature 50 °F -  
Max Temperature 66 °F 58 °F 73 °F (2000)
Min Temperature 35 °F 39 °F 26 °F (1997)
Degree Days  
Heating Degree Days 14    
Moisture  
Dew Point 40 °F    
Average Humidity 77    
Maximum Humidity 100    
Minimum Humidity 43    
Precipitation  
Precipitation 0.00 in - - ()
Sea Level Pressure  
Sea Level Pressure 30.31 in    
Wind  
Wind Speed 2 mph (NNE)    
Max Wind Speed 9 mph    
Max Gust Speed -    
Visibility 8 miles    
Events      
Averages and records for this station are not official NWS values.
T = Trace of Precipitation, MM = Missing Value Source: NWS Daily Summary

Daily Weather History Graph

Daily Weather History Graph

Search for Another Location

Airport:

Trip Planner

Search our weather history database for the weather conditions in past years. The results will help you decide how hot, cold, wet, or windy it might be!

Date:

Astronomy

Jan. 19, 2013 Rise Set
Actual Time 6:48 AM CST 5:16 PM CST
Civil Twilight 6:22 AM CST 5:42 PM CST
Nautical Twilight 5:53 AM CST 6:11 PM CST
Astronomical Twilight 5:24 AM CST 6:40 PM CST
Moon 11:38 AM CST (1/19) 12:28 AM CST (1/19)
Length of Visible Light 11h 20m
Length of Day
10h 28m
First Quarter, 57% of the Moon is Illuminated
Jan 19
First Quarter
Jan 26
Full
Feb 3
Last Quarter
Feb 10
New
Feb 17
First Quarter

Hourly Weather History & Observations

Time (CST) Temp. Windchill Dew Point Humidity Pressure Visibility Wind Dir Wind Speed Gust Speed Precip Events Conditions
12:15 AM 35.6 °F - 35.6 °F 100% 30.37 in 10.0 mi Calm Calm - N/A   Clear
12:35 AM 35.6 °F - 33.8 °F 93% 30.37 in 7.0 mi Calm Calm - N/A   Clear
1:15 AM 37.4 °F - 35.6 °F 93% 30.38 in 10.0 mi Calm Calm - N/A   Clear
1:35 AM 37.4 °F 32.8 °F 35.6 °F 93% 30.38 in 10.0 mi NNE 5.8 mph - N/A   Clear
1:55 AM 39.2 °F 35.0 °F 35.6 °F 87% 30.38 in 7.0 mi NNE 5.8 mph - N/A   Clear
2:15 AM 37.4 °F 33.8 °F 35.6 °F 93% 30.37 in 10.0 mi NE 4.6 mph - N/A   Clear
2:35 AM 39.2 °F 37.0 °F 35.6 °F 87% 30.37 in 10.0 mi NNE 3.5 mph - N/A   Clear
2:55 AM 39.2 °F - 35.6 °F 87% 30.37 in 10.0 mi Calm Calm - N/A   Clear
3:15 AM 37.4 °F 34.9 °F 35.6 °F 93% 30.37 in 7.0 mi NNE 3.5 mph - N/A   Clear
3:35 AM 39.2 °F 37.0 °F 35.6 °F 87% 30.37 in 7.0 mi NNE 3.5 mph - N/A   Clear
3:55 AM 37.4 °F 33.8 °F 35.6 °F 93% 30.36 in 7.0 mi NNE 4.6 mph - N/A   Clear
4:15 AM 39.2 °F 35.9 °F 35.6 °F 87% 30.36 in 10.0 mi NNE 4.6 mph - N/A   Mostly Cloudy
4:35 AM 41.0 °F 37.1 °F 35.6 °F 81% 30.36 in 10.0 mi NNE 5.8 mph - N/A   Overcast
5:15 AM 41.0 °F 39.0 °F 35.6 °F 81% 30.36 in 10.0 mi NE 3.5 mph - N/A   Mostly Cloudy
5:35 AM 39.2 °F 35.9 °F 35.6 °F 87% 30.36 in 10.0 mi NE 4.6 mph - N/A   Scattered Clouds
5:55 AM 41.0 °F 38.0 °F 35.6 °F 81% 30.36 in 7.0 mi NE 4.6 mph - N/A   Scattered Clouds
7:15 AM 41.0 °F 37.1 °F 35.6 °F 81% 30.38 in 7.0 mi NNE 5.8 mph - N/A   Scattered Clouds
7:35 AM 42.8 °F 39.3 °F 35.6 °F 76% 30.39 in 7.0 mi ENE 5.8 mph - N/A   Scattered Clouds
9:55 AM 57.2 °F - 37.4 °F 48% 30.39 in 7.0 mi ENE 9.2 mph - N/A   Clear
10:15 AM 59.0 °F - 37.4 °F 45% 30.39 in 7.0 mi ENE 9.2 mph - N/A   Clear
10:35 AM 59.0 °F - 37.4 °F 45% 30.39 in 7.0 mi East 6.9 mph - N/A   Clear
11:15 AM 62.6 °F - 41.0 °F 45% 30.36 in 10.0 mi NE 4.6 mph - N/A   Clear
11:35 AM 62.6 °F - 41.0 °F 45% 30.35 in 7.0 mi NNE 5.8 mph - N/A   Clear
12:15 PM 64.4 °F - 42.8 °F 45% 30.33 in 7.0 mi North 3.5 mph - N/A   Clear
12:55 PM 64.4 °F - 42.8 °F 45% 30.30 in 7.0 mi ESE 4.6 mph - N/A   Clear
1:15 PM 66.2 °F - 42.8 °F 43% 30.30 in 7.0 mi Calm Calm - N/A   Clear
1:55 PM 64.4 °F - 42.8 °F 45% 30.28 in 7.0 mi Calm Calm - N/A   Clear
2:15 PM 62.6 °F - 44.6 °F 52% 30.27 in 7.0 mi WSW 5.8 mph - N/A   Clear
2:35 PM 62.6 °F - 44.6 °F 52% 30.27 in 10.0 mi West 4.6 mph - N/A   Clear
2:55 PM 62.6 °F - 44.6 °F 52% 30.27 in 7.0 mi WSW 4.6 mph - N/A   Clear
3:15 PM 60.8 °F - 44.6 °F 55% 30.26 in 10.0 mi West 3.5 mph - N/A   Clear
3:35 PM 60.8 °F - 42.8 °F 52% 30.26 in 7.0 mi West 5.8 mph - N/A   Clear
3:55 PM 60.8 °F - 42.8 °F 52% 30.27 in 10.0 mi Calm Calm - N/A   Clear
4:15 PM 60.8 °F - 42.8 °F 52% 30.27 in 10.0 mi Calm Calm - N/A   Clear
4:35 PM 60.8 °F - 44.6 °F 55% 30.26 in 10.0 mi Calm Calm - N/A   Clear
4:55 PM 59.0 °F - 44.6 °F 59% 30.26 in 7.0 mi Calm Calm - N/A   Clear
5:15 PM 57.2 °F - 46.4 °F 67% 30.26 in 7.0 mi Calm Calm - N/A   Clear
5:55 PM 53.6 °F - 44.6 °F 72% 30.25 in 10.0 mi Calm Calm - N/A   Clear
6:15 PM 51.8 °F - 46.4 °F 82% 30.26 in 10.0 mi Calm Calm - N/A   Clear
6:55 PM 46.4 °F - 44.6 °F 93% 30.27 in 10.0 mi Calm Calm - N/A   Clear
7:15 PM 46.4 °F - 44.6 °F 93% 30.29 in 10.0 mi Calm Calm - N/A   Clear
7:35 PM 44.6 °F - 42.8 °F 93% 30.27 in 7.0 mi Calm Calm - N/A   Clear
7:55 PM 44.6 °F - 44.6 °F 100% 30.27 in 10.0 mi Calm Calm - N/A   Clear
8:15 PM 44.6 °F - 42.8 °F 93% 30.27 in 10.0 mi Calm Calm - N/A   Clear
8:35 PM 42.8 °F - 41.0 °F 93% 30.27 in 7.0 mi Calm Calm - N/A   Clear
8:55 PM 42.8 °F - 42.8 °F 100% 30.26 in 10.0 mi Calm Calm - N/A   Clear
9:15 PM 42.8 °F - 41.0 °F 93% 30.27 in 10.0 mi Calm Calm - N/A   Clear
9:35 PM 42.8 °F - 42.8 °F 100% 30.27 in 7.0 mi Calm Calm - N/A   Clear
9:55 PM 42.8 °F - 42.8 °F 100% 30.26 in 4.0 mi Calm Calm - N/A   Clear
10:15 PM 41.0 °F - 41.0 °F 100% 30.26 in 7.0 mi Calm Calm - N/A   Clear
10:35 PM 42.8 °F - 42.8 °F 100% 30.26 in 7.0 mi Calm Calm - N/A   Clear
10:55 PM 42.8 °F - 41.0 °F 93% 30.26 in 10.0 mi Calm Calm - N/A   Clear
11:15 PM 41.0 °F - 41.0 °F 100% 30.26 in 5.0 mi Calm Calm - N/A   Clear
11:35 PM 41.0 °F - 41.0 °F 100% 30.26 in 3.0 mi Calm Calm - N/A   Clear
11:55 PM 41.0 °F - 41.0 °F 100% 30.26 in 5.0 mi Calm Calm - N/A   Clear